Terminal Aerodrome Forecast
Issued by NWS

Home | Current Version | Previous Version | Text Only | Print | Product List | Glossary On
Versions: 1 2 3 4 5 6 7 8 9 10 11 12 13 14 15 16 17 18 19 20 21 22 23 24 25 26 27 28 29 30 31 32 33 34 35 36
000
FTUS46 KEKA 021734
TAFCEC
TAF
KCEC 021734Z 0218/0318 33003KT P6SM OVC015
     FM022100 20007KT P6SM -SHRA BKN012 OVC100
     FM030100 25005KT 3SM BR VCSH OVC009
     FM030700 00000KT 1SM BR OVC004=

USA.gov is the U.S. government's official web portal to all federal, state and local government web resources and services.